Location: Unspecified
(49.2170°N, 0.0000°E)
Time: 19:18:12
(UTC+00:00)

Transit 4A - Pass Details

Date: 24 June 2019
Orbit: 862 x 982 km, 66.8° (Epoch: 18 July)

Event Time Altitude Azimuth Distance (km) Brightness Sun altitude
Rises 18:18:42 0° 310° (NW) 3,682 12.4 15.0°
Reaches altitude 10° 18:23:08 10° 282° (WNW) 2,710 12.9 14.3°
Maximum altitude 18:25:22 12° 261° (W) 2,547 11.5 13.9°
Drops below altitude 10° 18:27:35 10° 240° (WSW) 2,679 11.0 13.6°
Sets 18:31:56 0° 211° (SSW) 3,588 11.1 12.9°
